Weather History for Moosonee, ON

Change the Weather History Date:

Tuesday, September 17, 2013

  Actual Average Record
Temperature  
Mean Temperature 56 °F -  
Max Temperature 68 °F 59 °F 71 °F (2003)
Min Temperature 44 °F 40 °F 28 °F (2014)
Degree Days  
Heating Degree Days 9    
Growing Degree Days 6 (Base 50)    
Moisture  
Dew Point 42 °F    
Average Humidity 63    
Maximum Humidity 81    
Minimum Humidity 43    
Precipitation  
Precipitation 0.00 in - - ()
Sea Level Pressure  
Sea Level Pressure 30.05 in    
Wind  
Wind Speed 12 mph ()    
Max Wind Speed 23 mph    
Max Gust Speed 30 mph    
Visibility 9.0 miles    
Events      
Averages and records for this station are not official NWS values.
T = Trace of Precipitation, MM = Missing Value Source: Averaged Metar Reports

Daily Weather History Graph

Daily Weather History Graph

Search for Another Location

Airport:

Trip Planner

Search our weather history database for the weather conditions in past years. The results will help you decide how hot, cold, wet, or windy it might be!

Date:

Astronomy

Sep. 17, 2013 Rise Set
Actual Time 7:01 AM EDT 7:31 PM EDT
Civil Twilight 6:27 AM EDT 8:04 PM EDT
Nautical Twilight 5:47 AM EDT 8:44 PM EDT
Astronomical Twilight 5:05 AM EDT 9:26 PM EDT
Moon 6:23 PM EDT (9/17) 4:44 AM EDT (9/17)
Length of Visible Light 13h 37m
Length of Day
12h 30m
Waxing Gibbous, 96% of the Moon is Illuminated
Sep 17
Waxing Gibbous
Sep 19
Full
Sep 26
Last Quarter
Oct 4
New
Oct 11
First Quarter

Hourly Weather History & Observations

Time (EDT) Temp. Windchill Dew Point Humidity Pressure Visibility Wind Dir Wind Speed Gust Speed Precip Events Conditions
12:00 AM 51.8 °F - 37.4 °F 58% 30.19 in 9.0 mi SW 11.5 mph - N/A   Overcast
12:22 AM 50.0 °F - 37.4 °F 62% 30.19 in 9.0 mi SW 11.5 mph 17.3 mph N/A   Scattered Clouds
1:00 AM 48.2 °F - 37.4 °F 66% 30.19 in 9.0 mi SW 9.2 mph - N/A   Clear
1:34 AM 48.2 °F - 39.2 °F 71% 30.18 in 9.0 mi SW 10.4 mph - N/A   Mostly Cloudy
2:00 AM 48.2 °F - 39.2 °F 71% 30.19 in 9.0 mi SW 9.2 mph - N/A   Overcast
2:58 AM 46.4 °F 41.1 °F 37.4 °F 71% 30.18 in 9.0 mi SW 11.5 mph 17.3 mph N/A   Scattered Clouds
3:00 AM 46.4 °F 41.1 °F 37.4 °F 71% 30.18 in 9.0 mi SW 11.5 mph 17.3 mph N/A   Scattered Clouds
4:00 AM 46.4 °F 40.7 °F 39.2 °F 76% 30.16 in 9.0 mi SW 12.7 mph 19.6 mph N/A   Partly Cloudy
5:00 AM 44.6 °F 38.8 °F 37.4 °F 76% 30.16 in 9.0 mi SW 11.5 mph 18.4 mph N/A   Clear
6:00 AM 44.6 °F 38.8 °F 37.4 °F 76% 30.14 in 9.0 mi SW 11.5 mph 18.4 mph N/A   Clear
7:00 AM 44.6 °F 38.4 °F 39.2 °F 81% 30.14 in 9.0 mi SW 12.7 mph 18.4 mph N/A   Clear
8:00 AM 44.6 °F 37.2 °F 39.2 °F 81% 30.12 in 9.0 mi SW 17.3 mph 24.2 mph N/A   Clear
9:00 AM 48.2 °F - 39.2 °F 71% 30.11 in 9.0 mi SW 13.8 mph 26.5 mph N/A   Clear
10:00 AM 51.8 °F - 41.0 °F 67% 30.10 in 9.0 mi SW 13.8 mph 26.5 mph N/A   Clear
11:00 AM 55.4 °F - 44.6 °F 67% 30.07 in 9.0 mi SW 13.8 mph 23.0 mph N/A   Clear
12:00 PM 59.0 °F - 44.6 °F 59% 30.06 in 9.0 mi SSW 19.6 mph 25.3 mph N/A   Clear
1:00 PM 60.8 °F - 46.4 °F 59% 30.03 in 9.0 mi SSW 20.7 mph 26.5 mph N/A   Clear
2:00 PM 64.4 °F - 48.2 °F 56% 30.00 in 9.0 mi SSW 19.6 mph 26.5 mph N/A   Clear
3:00 PM 68.0 °F - 46.4 °F 46% 29.96 in 9.0 mi SW 18.4 mph 26.5 mph N/A   Clear
4:00 PM 68.0 °F - 46.4 °F 46% 29.94 in 9.0 mi SW 19.6 mph 28.8 mph N/A   Clear
5:00 PM 68.0 °F - 44.6 °F 43% 29.92 in 9.0 mi SW 23.0 mph 29.9 mph N/A   Clear
6:00 PM 68.0 °F - 46.4 °F 46% 29.90 in 9.0 mi SW 18.4 mph 25.3 mph N/A   Clear
7:00 PM 64.4 °F - 46.4 °F 52% 29.88 in 9.0 mi SW 13.8 mph 21.9 mph N/A   Clear
8:00 PM 62.6 °F - 46.4 °F 55% 29.88 in 9.0 mi SW 13.8 mph 19.6 mph N/A   Clear
9:00 PM 62.6 °F - 46.4 °F 55% 29.86 in 9.0 mi SW 18.4 mph 24.2 mph N/A   Clear
10:00 PM 60.8 °F - 48.2 °F 63% 29.87 in 9.0 mi SW 13.8 mph 23.0 mph N/A   Clear
11:00 PM 59.0 °F - 48.2 °F 67% 29.88 in 9.0 mi SW 12.7 mph 20.7 mph N/A   Clear